,,Stat1,,Stat2,,Stat3,,Stat4,,Wind1,,Wind1,
time,status,PR1M_SUM,status,RH1M_AVG,status,SR1M_AVG,status,TA1M_AVG,status,W1dAve1m,status,W1sAve1m,
1999-12-25, 00:01:00,VALID,0,VALID,89.526,VALID,0.0509425,VALID,19.5264,VALID,193,VALID,0.974559,
1999-12-25, 00:02:00,VALID,0,VALID,89.3137,VALID,0.0509425,VALID,19.5167,VALID,233,VALID,0.736979,
1999-12-25, 00:03:00,VALID,0,VALID,89.2794,VALID,0.0679233,VALID,19.5358,VALID,250,VALID,1.29238,
1999-12-25, 00:04:00,VALID,0,VALID,89.5439,VALID,0.0849042,VALID,19.5682,VALID,193,VALID,0.63528,
1999-12-25, 00:05:00,VALID,0,VALID,88.8648,VALID,0.0849042,VALID,19.5714,VALID,211,VALID,1.59005,
1999-12-25, 00:06:00,VALID,0,VALID,88.7046,VALID,0.0509425,VALID,19.594,VALID,191,VALID,1.09195,
1999-12-25, 00:07:00,VALID,0,VALID,88.8368,VALID,0.0679233,VALID,19.5975,VALID,208,VALID,1.24445,
1999-12-25, 00:08:00,VALID,0,VALID,88.4414,VALID,0.101885,VALID,19.5677,VALID,215,VALID,1.13516,
1999-12-25, 00:09:01,VALID,0,VALID,88.2405,VALID,0.101885,VALID,19.5908,VALID,197,VALID,1.5621,
1999-12-25, 00:10:00,VALID,0,VALID,87.8348,VALID,0.0849042,VALID,19.6194,VALID,207,VALID,1.10465,
1999-12-25, 00:11:00,VALID,0,VALID,88.0306,VALID,0.0849042,VALID,19.6355,VALID,219,VALID,1.28906,
1999-12-25, 00:12:00,VALID,0,VALID,88.3002,VALID,0.0849042,VALID,19.6296,VALID,221,VALID,1.11979,
1999-12-25, 00:13:00,VALID,0,VALID,88.5482,VALID,0.0509425,VALID,19.5908,VALID,216,VALID,1.32242,
1999-12-25, 00:14:00,VALID,0,VALID,88.5698,VALID,0,VALID,19.5821,VALID,219,VALID,1.30617,
1999-12-25, 00:15:00,VALID,0,VALID,88.1832,VALID,-0.0509425,VALID,19.5856,VALID,220,VALID,1.63343,
1999-12-25, 00:16:00,VALID,0,VALID,88.1031,VALID,-0.0339617,VALID,19.6214,VALID,203,VALID,1.46443,
1999-12-25, 00:17:00,VALID,0,VALID,88.4045,VALID,-0.0339617,VALID,19.6308,VALID,226,VALID,1.4345,
1999-12-25, 00:18:00,VALID,0,VALID,87.7255,VALID,-0.0339617,VALID,19.6316,VALID,210,VALID,2.03168,
1999-12-25, 00:19:00,VALID,0,VALID,87.5182,VALID,0,VALID,19.686,VALID,210,VALID,1.64909,
1999-12-25, 00:20:00,VALID,0,VALID,87.6619,VALID,-0.0169808,VALID,19.6957,VALID,189,VALID,1.21563,
1999-12-25, 00:21:00,VALID,0,VALID,87.1659,VALID,-0.0339617,VALID,19.682,VALID,197,VALID,1.28746,
1999-12-25, 00:22:00,VALID,0,VALID,87.3681,VALID,0,VALID,19.7024,VALID,196,VALID,0.909054,
1999-12-25, 00:23:00,VALID,0,VALID,87.5805,VALID,0,VALID,19.6957,VALID,205,VALID,1.45946,
1999-12-25, 00:24:00,VALID,0,VALID,87.5563,VALID,0,VALID,19.686,VALID,213,VALID,1.72759,
1999-12-25, 00:25:00,VALID,0,VALID,87.6428,VALID,-0.0169808,VALID,19.7052,VALID,194,VALID,1.21669,
1999-12-25, 00:26:00,VALID,0,VALID,87.2499,VALID,-0.0679233,VALID,19.7186,VALID,190,VALID,1.65585,
1999-12-25, 00:27:00,VALID,0,VALID,87.4495,VALID,-0.0509425,VALID,19.7213,VALID,193,VALID,1.67188,
1999-12-25, 00:28:00,VALID,0,VALID,87.9518,VALID,-0.0849042,VALID,19.7096,VALID,192,VALID,1.33183,
1999-12-25, 00:29:00,VALID,0,VALID,87.8768,VALID,-0.152827,VALID,19.6452,VALID,189,VALID,1.60042,
1999-12-25, 00:30:01,VALID,0,VALID,88.1247,VALID,-0.135847,VALID,19.6288,VALID,212,VALID,1.3543,
1999-12-25, 00:31:00,VALID,0,VALID,87.7064,VALID,-0.135847,VALID,19.6097,VALID,217,VALID,1.25,
1999-12-25, 00:32:00,VALID,0,VALID,87.447,VALID,-0.135847,VALID,19.6422,VALID,214,VALID,1.7002,
1999-12-25, 00:33:00,VALID,0,VALID,87.2575,VALID,-0.135847,VALID,19.6778,VALID,206,VALID,1.62932,
1999-12-25, 00:34:00,VALID,0,VALID,87.6492,VALID,-0.101885,VALID,19.7069,VALID,195,VALID,1.5082,
1999-12-25, 00:35:00,VALID,0,VALID,87.419,VALID,-0.118866,VALID,19.6743,VALID,211,VALID,1.39248,
1999-12-25, 00:36:00,VALID,0,VALID,86.9294,VALID,-0.118866,VALID,19.6937,VALID,201,VALID,2.33734,
1999-12-25, 00:37:00,VALID,0,VALID,87.2982,VALID,-0.101885,VALID,19.7422,VALID,214,VALID,1.3846,
1999-12-25, 00:38:00,VALID,0,VALID,86.8875,VALID,-0.118866,VALID,19.7624,VALID,201,VALID,2.08655,
1999-12-25, 00:39:00,VALID,0,VALID,86.8633,VALID,-0.118866,VALID,19.7748,VALID,201,VALID,1.70954,
1999-12-25, 00:40:00,VALID,0,VALID,87.0553,VALID,-0.135847,VALID,19.7716,VALID,196,VALID,1.52175,
1999-12-25, 00:41:00,VALID,0,VALID,87.3249,VALID,-0.118866,VALID,19.7656,VALID,194,VALID,1.42969,
1999-12-25, 00:42:01,VALID,0,VALID,87.3885,VALID,-0.186789,VALID,19.7427,VALID,207,VALID,1.78618,
1999-12-25, 00:43:00,VALID,0,VALID,87.3363,VALID,-0.101885,VALID,19.7059,VALID,210,VALID,2.0847,
1999-12-25, 00:44:00,VALID,0,VALID,87.3529,VALID,-0.0679233,VALID,19.7188,VALID,214,VALID,1.88602,
1999-12-25, 00:45:00,VALID,0,VALID,87.2575,VALID,-0.101885,VALID,19.7415,VALID,219,VALID,1.77865,
1999-12-25, 00:46:00,VALID,0,VALID,87.3109,VALID,-0.0849042,VALID,19.7606,VALID,213,VALID,1.58464,
1999-12-25, 00:47:00,VALID,0,VALID,87.0388,VALID,-0.0849042,VALID,19.7474,VALID,221,VALID,2.26016,
1999-12-25, 00:48:00,VALID,0,VALID,86.5136,VALID,-0.0509425,VALID,19.7865,VALID,204,VALID,1.85677,
1999-12-25, 00:49:00,VALID,0,VALID,86.801,VALID,-0.101885,VALID,19.8064,VALID,186,VALID,1.71795,
1999-12-25, 00:50:00,VALID,0,VALID,86.8188,VALID,-0.0849042,VALID,19.7833,VALID,215,VALID,1.74768,
1999-12-25, 00:51:00,VALID,0,VALID,86.8659,VALID,-0.0679233,VALID,19.7768,VALID,204,VALID,1.44305,
1999-12-25, 00:52:00,VALID,0,VALID,87.4254,VALID,-0.0849042,VALID,19.7604,VALID,186,VALID,1.15296,
1999-12-25, 00:53:00,VALID,0,VALID,87.1876,VALID,-0.101885,VALID,19.7315,VALID,185,VALID,1.78265,
1999-12-25, 00:54:00,VALID,0,VALID,86.8926,VALID,-0.0509425,VALID,19.7407,VALID,221,VALID,1.31571,
1999-12-25, 00:55:00,VALID,0,VALID,87.2346,VALID,-0.0679233,VALID,19.7477,VALID,197,VALID,1.60794,
1999-12-25, 00:56:00,VALID,0,VALID,87.6542,VALID,-0.0849042,VALID,19.7188,VALID,204,VALID,1.35118,
1999-12-25, 00:57:00,VALID,0,VALID,88.0154,VALID,-0.0679233,VALID,19.6763,VALID,217,VALID,1.80137,
1999-12-25, 00:58:00,VALID,0,VALID,88.1883,VALID,-0.101885,VALID,19.6375,VALID,200,VALID,1.51583,
1999-12-25, 00:59:00,VALID,0,VALID,88.4147,VALID,-0.0509425,VALID,19.6052,VALID,206,VALID,1.07305,
1999-12-25, 01:00:00,VALID,0,VALID,87.6352,VALID,-0.0509425,VALID,19.5858,VALID,209,VALID,1.91077,
1999-12-25, 01:01:00,VALID,0,VALID,87.5029,VALID,-0.0679233,VALID,19.6278,VALID,212,VALID,1.61543,
1999-12-25, 01:02:00,VALID,0,VALID,87.7814,VALID,-0.0509425,VALID,19.6507,VALID,221,VALID,1.31394,
1999-12-25, 01:03:00,VALID,0,VALID,87.5805,VALID,-0.0339617,VALID,19.6569,VALID,190,VALID,1.8095,
1999-12-25, 01:04:01,VALID,0,VALID,87.9988,VALID,-0.0509425,VALID,19.6567,VALID,210,VALID,2.04821,
1999-12-25, 01:05:00,VALID,0,VALID,88.1578,VALID,-0.0169808,VALID,19.6569,VALID,205,VALID,1.56044,
1999-12-25, 01:06:00,VALID,0,VALID,88.5558,VALID,-0.0509425,VALID,19.6537,VALID,202,VALID,1.21374,
1999-12-25, 01:07:00,VALID,0,VALID,88.5698,VALID,-0.0169808,VALID,19.6181,VALID,212,VALID,1.58256,
1999-12-25, 01:08:00,VALID,0,VALID,88.8076,VALID,-0.0509425,VALID,19.6119,VALID,196,VALID,1.27851,
1999-12-25, 01:09:00,VALID,0,VALID,88.8521,VALID,-0.0339617,VALID,19.5893,VALID,187,VALID,1.53803,
1999-12-25, 01:10:00,VALID,0,VALID,88.5367,VALID,-0.0509425,VALID,19.586,VALID,201,VALID,1.64391,
1999-12-25, 01:11:00,VALID,0,VALID,88.2646,VALID,-0.101885,VALID,19.6025,VALID,186,VALID,1.88261,
1999-12-25, 01:12:00,VALID,0,VALID,88.2125,VALID,-0.0679233,VALID,19.6569,VALID,191,VALID,1.7168,
1999-12-25, 01:13:00,VALID,0,VALID,88.271,VALID,-0.0509425,VALID,19.6597,VALID,198,VALID,1.6046,
1999-12-25, 01:14:00,VALID,0,VALID,88.0294,VALID,0.0509425,VALID,19.6621,VALID,214,VALID,2.52559,
1999-12-25, 01:15:01,VALID,0,VALID,88.0243,VALID,0.101885,VALID,19.694,VALID,199,VALID,1.91927,
1999-12-25, 01:16:00,VALID,0,VALID,87.9404,VALID,0.0849042,VALID,19.6937,VALID,181,VALID,1.52484,
1999-12-25, 01:17:00,VALID,0,VALID,88.5762,VALID,0.101885,VALID,19.6781,VALID,177,VALID,1.23564,
1999-12-25, 01:18:00,VALID,0,VALID,88.182,VALID,0.0509425,VALID,19.6162,VALID,188,VALID,1.66632,
1999-12-25, 01:19:00,VALID,0,VALID,88.2252,VALID,0.0339617,VALID,19.6164,VALID,177,VALID,1.76706,
1999-12-25, 01:20:00,VALID,0,VALID,87.7992,VALID,0.0849042,VALID,19.639,VALID,175,VALID,1.66106,
1999-12-25, 01:21:00,VALID,0,VALID,87.8208,VALID,0.0679233,VALID,19.6517,VALID,202,VALID,1.66567,
1999-12-25, 01:22:00,VALID,0,VALID,87.9111,VALID,0.0849042,VALID,19.6843,VALID,210,VALID,1.89823,
1999-12-25, 01:23:00,VALID,0,VALID,87.8488,VALID,0.101885,VALID,19.6942,VALID,198,VALID,2.02496,
1999-12-25, 01:24:00,VALID,0,VALID,88.3104,VALID,0.0339617,VALID,19.6845,VALID,197,VALID,1.02617,
1999-12-25, 01:25:00,VALID,0,VALID,88.3841,VALID,0.0679233,VALID,19.6492,VALID,200,VALID,1.17889,
1999-12-25, 01:26:01,VALID,0,VALID,88.6359,VALID,0.101885,VALID,19.6127,VALID,210,VALID,0.591992,
1999-12-25, 01:27:00,VALID,0,VALID,88.613,VALID,0.0679233,VALID,19.5876,VALID,210,VALID,0.755551,
1999-12-25, 01:28:00,VALID,0,VALID,88.6703,VALID,0.0509425,VALID,19.5813,VALID,205,VALID,1.39551,
1999-12-25, 01:29:00,VALID,0,VALID,88.6601,VALID,-0.0169808,VALID,19.5562,VALID,220,VALID,1.27118,
1999-12-25, 01:30:00,VALID,0,VALID,88.758,VALID,-0.0509425,VALID,19.5565,VALID,214,VALID,1.28085,
1999-12-25, 01:31:00,VALID,0,VALID,88.496,VALID,-0.0509425,VALID,19.5433,VALID,198,VALID,1.04018,
1999-12-25, 01:32:00,VALID,0,VALID,88.5889,VALID,-0.0509425,VALID,19.5565,VALID,224,VALID,1.0588,
1999-12-25, 01:33:00,VALID,0,VALID,88.4185,VALID,-0.0339617,VALID,19.5664,VALID,213,VALID,1.41627,
1999-12-25, 01:34:00,VALID,0,VALID,88.3333,VALID,-0.0169808,VALID,19.5726,VALID,210,VALID,1.37331,
1999-12-25, 01:35:00,VALID,0,VALID,88.1705,VALID,-0.0339617,VALID,19.5821,VALID,216,VALID,1.78843,
1999-12-25, 01:36:01,VALID,0,VALID,88.1921,VALID,-0.0679233,VALID,19.6047,VALID,212,VALID,1.19634,
1999-12-25, 01:37:01,VALID,0,VALID,88.2468,VALID,-0.0169808,VALID,19.595,VALID,195,VALID,1.0993,
1999-12-25, 01:38:00,VALID,0,VALID,88.2328,VALID,-0.0339617,VALID,19.5885,VALID,215,VALID,1.20693,
1999-12-25, 01:39:00,VALID,0,VALID,88.065,VALID,-0.0169808,VALID,19.5856,VALID,211,VALID,1.43598,
1999-12-25, 01:40:00,VALID,0,VALID,88.0459,VALID,0,VALID,19.598,VALID,220,VALID,1.20942,
1999-12-25, 01:41:00,VALID,0,VALID,88.0713,VALID,0,VALID,19.6146,VALID,217,VALID,1.9625,
1999-12-25, 01:42:00,VALID,0,VALID,87.9607,VALID,-0.0509425,VALID,19.6243,VALID,217,VALID,1.8105,
1999-12-25, 01:43:00,VALID,0,VALID,87.9035,VALID,0,VALID,19.6398,VALID,211,VALID,1.80248,
1999-12-25, 01:44:00,VALID,0,VALID,88.0662,VALID,-0.0509425,VALID,19.6539,VALID,198,VALID,1.40709,
1999-12-25, 01:45:00,VALID,0,VALID,87.8781,VALID,-0.0509425,VALID,19.6248,VALID,223,VALID,1.69613,
1999-12-25, 01:46:00,VALID,0,VALID,87.7941,VALID,-0.0509425,VALID,19.6437,VALID,174,VALID,1.01192,
1999-12-25, 01:47:00,VALID,0,VALID,88.2964,VALID,-0.0509425,VALID,19.6338,VALID,170,VALID,0.900441,
1999-12-25, 01:48:01,VALID,0,VALID,88.5444,VALID,0,VALID,19.5885,VALID,188,VALID,1.02204,
1999-12-25, 01:49:00,VALID,0,VALID,88.847,VALID,-0.0169808,VALID,19.5403,VALID,198,VALID,1.02817,
1999-12-25, 01:50:00,VALID,0,VALID,88.3447,VALID,-0.0679233,VALID,19.511,VALID,215,VALID,1.47447,
1999-12-25, 01:51:00,VALID,0,VALID,88.2684,VALID,-0.0169808,VALID,19.5403,VALID,216,VALID,1.23066,
1999-12-25, 01:52:00,VALID,0,VALID,88.0472,VALID,-0.0339617,VALID,19.5696,VALID,216,VALID,1.27865,
1999-12-25, 01:53:00,VALID,0,VALID,88.3587,VALID,-0.0169808,VALID,19.5821,VALID,207,VALID,1.09805,
1999-12-25, 01:54:00,VALID,0,VALID,88.4032,VALID,-0.0169808,VALID,19.5689,VALID,220,VALID,1.30757,
1999-12-25, 01:55:00,VALID,0,VALID,88.2316,VALID,-0.0169808,VALID,19.5629,VALID,214,VALID,1.57988,
1999-12-25, 01:56:00,VALID,0,VALID,87.9327,VALID,-0.0509425,VALID,19.5823,VALID,218,VALID,1.93729,
1999-12-25, 01:57:00,VALID,0,VALID,87.8755,VALID,-0.0339617,VALID,19.6271,VALID,230,VALID,1.46595,
1999-12-25, 01:58:00,VALID,0,VALID,88.0103,VALID,-0.0339617,VALID,19.6472,VALID,233,VALID,1.30982,
1999-12-25, 01:59:01,VALID,0,VALID,88.0777,VALID,-0.0169808,VALID,19.644,VALID,239,VALID,1.06086,
1999-12-25, 02:00:00,VALID,0,VALID,88.1578,VALID,-0.0169808,VALID,19.6209,VALID,230,VALID,1.4379,
1999-12-25, 02:01:00,VALID,0,VALID,88.2557,VALID,-0.0679233,VALID,19.5982,VALID,227,VALID,1.59058,
1999-12-25, 02:02:00,VALID,0,VALID,88.3485,VALID,-0.0849042,VALID,19.5885,VALID,225,VALID,1.65055,
1999-12-25, 02:03:00,VALID,0,VALID,88.2138,VALID,-0.0679233,VALID,19.599,VALID,217,VALID,1.49507,
1999-12-25, 02:04:00,VALID,0,VALID,88.3905,VALID,-0.0169808,VALID,19.602,VALID,219,VALID,1.24301,
1999-12-25, 02:05:00,VALID,0,VALID,88.4884,VALID,-0.0509425,VALID,19.5793,VALID,208,VALID,1.41787,
1999-12-25, 02:06:00,VALID,0,VALID,88.3167,VALID,-0.0339617,VALID,19.5632,VALID,219,VALID,1.38129,
1999-12-25, 02:07:00,VALID,0,VALID,88.299,VALID,-0.0339617,VALID,19.5689,VALID,213,VALID,1.30339,
1999-12-25, 02:08:00,VALID,0,VALID,88.3829,VALID,-0.0509425,VALID,19.5858,VALID,213,VALID,1.57949,
1999-12-25, 02:09:00,VALID,0,VALID,88.1107,VALID,-0.0169808,VALID,19.5823,VALID,225,VALID,1.35377,
1999-12-25, 02:10:01,VALID,0,VALID,87.9531,VALID,-0.0169808,VALID,19.6146,VALID,225,VALID,1.4401,
1999-12-25, 02:11:00,VALID,0,VALID,87.9543,VALID,-0.0509425,VALID,19.644,VALID,215,VALID,1.14147,
1999-12-25, 02:12:00,VALID,0,VALID,88.4871,VALID,-0.0339617,VALID,19.6306,VALID,207,VALID,0.608758,
1999-12-25, 02:13:00,VALID,0,VALID,88.3511,VALID,-0.0169808,VALID,19.5918,VALID,207,VALID,1.20045,
1999-12-25, 02:14:00,VALID,0,VALID,88.4604,VALID,-0.0339617,VALID,19.5729,VALID,214,VALID,1.00521,
1999-12-25, 02:15:00,VALID,0,VALID,88.4236,VALID,-0.0169808,VALID,19.5565,VALID,195,VALID,1.14583,
1999-12-25, 02:16:00,VALID,0,VALID,88.6753,VALID,-0.0339617,VALID,19.547,VALID,196,VALID,0.81435,
1999-12-25, 02:17:00,VALID,0,VALID,88.9767,VALID,-0.0339617,VALID,19.5204,VALID,214,VALID,0.577553,
1999-12-25, 02:18:00,VALID,0,VALID,88.8101,VALID,-0.0679233,VALID,19.4886,VALID,219,VALID,1.34902,
1999-12-25, 02:19:00,VALID,0,VALID,89.0772,VALID,-0.101885,VALID,19.4886,VALID,224,VALID,0.813902,
1999-12-25, 02:20:00,VALID,0,VALID,89.2107,VALID,-0.0169808,VALID,19.4622,VALID,213,VALID,0.845117,
1999-12-25, 02:21:00,VALID,0,VALID,89.3035,VALID,-0.0679233,VALID,19.4366,VALID,224,VALID,1.30839,
1999-12-25, 02:22:00,VALID,0,VALID,88.8915,VALID,-0.0679233,VALID,19.4272,VALID,226,VALID,1.0168,
1999-12-25, 02:23:00,VALID,0,VALID,88.8432,VALID,-0.0169808,VALID,19.4466,VALID,236,VALID,1.02097,
1999-12-25, 02:24:00,VALID,0,VALID,88.9309,VALID,-0.0849042,VALID,19.4659,VALID,212,VALID,1.16166,
1999-12-25, 02:25:00,VALID,0,VALID,89.0123,VALID,-0.0509425,VALID,19.4722,VALID,209,VALID,1.01138,
1999-12-25, 02:26:00,VALID,0,VALID,89.0695,VALID,-0.0339617,VALID,19.4595,VALID,233,VALID,1.00206,
1999-12-25, 02:27:00,VALID,0,VALID,89.451,VALID,-0.0339617,VALID,19.4394,VALID,218,VALID,0.69371,
1999-12-25, 02:28:00,VALID,0,VALID,89.685,VALID,-0.0169808,VALID,19.404,VALID,209,VALID,0.851563,
1999-12-25, 02:29:00,VALID,0,VALID,89.98,VALID,-0.0339617,VALID,19.369,VALID,205,VALID,0.92652,
1999-12-25, 02:30:01,VALID,0,VALID,90.2509,VALID,-0.0509425,VALID,19.3237,VALID,213,VALID,0.983347,
1999-12-25, 02:31:00,VALID,0,VALID,90.331,VALID,-0.0169808,VALID,19.2715,VALID,213,VALID,0.956209,
1999-12-25, 02:32:00,VALID,0,VALID,90.5141,VALID,-0.0169808,VALID,19.2556,VALID,223,VALID,0.729968,
1999-12-25, 02:33:00,VALID,0,VALID,90.3259,VALID,-0.0339617,VALID,19.2429,VALID,215,VALID,1.28733,
1999-12-25, 02:34:00,VALID,0,VALID,90.481,VALID,-0.0339617,VALID,19.2561,VALID,213,VALID,0.734809,
1999-12-25, 02:35:00,VALID,0,VALID,90.6387,VALID,-0.0339617,VALID,19.2461,VALID,213,VALID,0.868945,
1999-12-25, 02:36:00,VALID,0,VALID,90.5764,VALID,-0.0169808,VALID,19.2205,VALID,212,VALID,1.35497,
1999-12-25, 02:37:00,VALID,0,VALID,90.3043,VALID,-0.0679233,VALID,19.2429,VALID,226,VALID,1.64864,
1999-12-25, 02:38:00,VALID,0,VALID,90.1606,VALID,-0.0509425,VALID,19.2658,VALID,216,VALID,1.29117,
1999-12-25, 02:39:00,VALID,0,VALID,90.2547,VALID,-0.0339617,VALID,19.2819,VALID,213,VALID,1.06147,
1999-12-25, 02:40:00,VALID,0,VALID,90.0054,VALID,-0.0849042,VALID,19.2949,VALID,214,VALID,1.72944,
1999-12-25, 02:41:00,VALID,0,VALID,90.041,VALID,-0.0679233,VALID,19.3143,VALID,221,VALID,1.2526,
1999-12-25, 02:42:01,VALID,0,VALID,90.0601,VALID,-0.0339617,VALID,19.3175,VALID,219,VALID,1.24339,
1999-12-25, 02:43:00,VALID,0,VALID,90.242,VALID,-0.0339617,VALID,19.3043,VALID,222,VALID,1.20148,
1999-12-25, 02:44:00,VALID,0,VALID,90.2318,VALID,0.0169808,VALID,19.2914,VALID,219,VALID,1.36604,
1999-12-25, 02:45:00,VALID,0,VALID,90.495,VALID,0.0169808,VALID,19.275,VALID,221,VALID,1.13457,
1999-12-25, 02:46:00,VALID,0,VALID,90.757,VALID,0,VALID,19.2364,VALID,220,VALID,0.904046,
1999-12-25, 02:47:00,VALID,0,VALID,90.8739,VALID,0,VALID,19.1944,VALID,230,VALID,1.11406,
1999-12-25, 02:48:00,VALID,0,VALID,90.9668,VALID,0.0169808,VALID,19.1718,VALID,229,VALID,1.32155,
1999-12-25, 02:49:00,VALID,0,VALID,90.9706,VALID,0,VALID,19.1554,VALID,240,VALID,1.11543,
1999-12-25, 02:50:00,VALID,0,VALID,91.0265,VALID,0,VALID,19.1492,VALID,227,VALID,1.42825,
1999-12-25, 02:51:00,VALID,0,VALID,91.0787,VALID,0.0509425,VALID,19.1621,VALID,233,VALID,1.07933,
1999-12-25, 02:52:00,VALID,0,VALID,91.1448,VALID,0.0169808,VALID,19.1492,VALID,217,VALID,1.21674,
1999-12-25, 02:53:00,VALID,0,VALID,91.0342,VALID,0.0339617,VALID,19.136,VALID,227,VALID,1.10588,
1999-12-25, 02:54:00,VALID,0,VALID,91.2173,VALID,0.0509425,VALID,19.1388,VALID,210,VALID,0.750601,
1999-12-25, 02:55:00,VALID,0,VALID,90.8841,VALID,0.0509425,VALID,19.1455,VALID,230,VALID,2.04413,
1999-12-25, 02:56:00,VALID,0,VALID,90.8689,VALID,0.0169808,VALID,19.1683,VALID,230,VALID,1.28421,
1999-12-25, 02:57:00,VALID,0,VALID,90.8968,VALID,0.0169808,VALID,19.1688,VALID,224,VALID,1.12007,
1999-12-25, 02:58:00,VALID,0,VALID,90.7392,VALID,0,VALID,19.1758,VALID,221,VALID,0.848758,
1999-12-25, 02:59:00,VALID,0,VALID,90.8918,VALID,-0.0849042,VALID,19.1663,VALID,218,VALID,1.07592,
1999-12-25, 03:00:00,VALID,0,VALID,91.0138,VALID,-0.0679233,VALID,19.1442,VALID,217,VALID,1.31879,
1999-12-25, 03:01:00,VALID,0,VALID,91.1486,VALID,-0.101885,VALID,19.1243,VALID,230,VALID,0.960286,
1999-12-25, 03:02:00,VALID,0,VALID,91.291,VALID,-0.0849042,VALID,19.1086,VALID,222,VALID,1.08242,
1999-12-25, 03:03:00,VALID,0,VALID,91.3495,VALID,-0.0849042,VALID,19.0825,VALID,222,VALID,1.26242,
1999-12-25, 03:04:01,VALID,0,VALID,91.3203,VALID,-0.0849042,VALID,19.0862,VALID,224,VALID,1.41406,
1999-12-25, 03:05:00,VALID,0,VALID,91.2503,VALID,-0.101885,VALID,19.0892,VALID,223,VALID,1.26795,
1999-12-25, 03:06:00,VALID,0,VALID,91.3114,VALID,-0.101885,VALID,19.0924,VALID,215,VALID,1.0884,
1999-12-25, 03:07:00,VALID,0,VALID,91.4144,VALID,-0.0849042,VALID,19.0795,VALID,221,VALID,0.853824,
1999-12-25, 03:08:00,VALID,0,VALID,91.5962,VALID,-0.101885,VALID,19.0636,VALID,225,VALID,1.03305,
1999-12-25, 03:09:00,VALID,0,VALID,91.731,VALID,-0.101885,VALID,19.0412,VALID,224,VALID,1.13902,
1999-12-25, 03:10:00,VALID,0,VALID,91.7272,VALID,-0.101885,VALID,19.0186,VALID,224,VALID,1.21772,
1999-12-25, 03:11:00,VALID,0,VALID,91.8238,VALID,-0.101885,VALID,18.9952,VALID,230,VALID,0.905107,
1999-12-25, 03:12:00,VALID,0,VALID,91.7984,VALID,-0.0849042,VALID,18.983,VALID,225,VALID,1.16445,
1999-12-25, 03:13:00,VALID,0,VALID,91.8861,VALID,-0.0849042,VALID,18.9731,VALID,221,VALID,1.21134,
1999-12-25, 03:14:00,VALID,0,VALID,92.007,VALID,-0.0849042,VALID,18.9534,VALID,211,VALID,1.49414,
1999-12-25, 03:15:00,VALID,0,VALID,92.0743,VALID,-0.0849042,VALID,18.9375,VALID,214,VALID,1.29132,
1999-12-25, 03:16:00,VALID,0,VALID,92.1265,VALID,-0.0679233,VALID,18.9147,VALID,219,VALID,1.30645,
1999-12-25, 03:17:00,VALID,0,VALID,92.2117,VALID,-0.101885,VALID,18.9278,VALID,215,VALID,1.48109,
1999-12-25, 03:18:00,VALID,0,VALID,92.335,VALID,-0.101885,VALID,18.9022,VALID,211,VALID,1.29447,
1999-12-25, 03:19:00,VALID,0,VALID,92.4609,VALID,-0.101885,VALID,18.8632,VALID,216,VALID,1.12857,
1999-12-25, 03:20:00,VALID,0,VALID,92.5919,VALID,-0.0679233,VALID,18.8371,VALID,205,VALID,0.886513,
1999-12-25, 03:21:00,VALID,0,VALID,92.508,VALID,-0.101885,VALID,18.8341,VALID,227,VALID,1.51522,
1999-12-25, 03:22:00,VALID,0,VALID,92.3261,VALID,-0.101885,VALID,18.8636,VALID,220,VALID,1.55363,
1999-12-25, 03:23:00,VALID,0,VALID,92.3223,VALID,-0.0849042,VALID,18.8696,VALID,212,VALID,1.73775,
1999-12-25, 03:24:00,VALID,0,VALID,92.3032,VALID,-0.101885,VALID,18.8796,VALID,218,VALID,1.44243,
1999-12-25, 03:25:00,VALID,0,VALID,92.3795,VALID,-0.101885,VALID,18.8664,VALID,206,VALID,1.34663,
1999-12-25, 03:26:00,VALID,0,VALID,92.3681,VALID,-0.0849042,VALID,18.8699,VALID,208,VALID,1.30889,
1999-12-25, 03:27:00,VALID,0,VALID,92.3732,VALID,-0.101885,VALID,18.89,VALID,192,VALID,1.17231,
1999-12-25, 03:28:00,VALID,0,VALID,92.363,VALID,-0.101885,VALID,18.8602,VALID,196,VALID,1.42014,
1999-12-25, 03:29:00,VALID,0,VALID,92.3872,VALID,0,VALID,18.8617,VALID,203,VALID,1.45371,
1999-12-25, 03:30:00,VALID,0,VALID,92.4736,VALID,-0.0169808,VALID,18.8521,VALID,198,VALID,1.3764,
1999-12-25, 03:31:00,VALID,0,VALID,92.4978,VALID,0,VALID,18.8625,VALID,194,VALID,1.19952,
1999-12-25, 03:32:00,VALID,0,VALID,92.4685,VALID,0,VALID,18.8555,VALID,203,VALID,0.923142,
1999-12-25, 03:33:00,VALID,0,VALID,92.5537,VALID,0,VALID,18.8585,VALID,203,VALID,1.51501,
1999-12-25, 03:34:00,VALID,0,VALID,92.6224,VALID,0.0169808,VALID,18.8426,VALID,208,VALID,0.709087,
1999-12-25, 03:35:00,VALID,0,VALID,92.7127,VALID,0,VALID,18.8327,VALID,208,VALID,0.958734,
1999-12-25, 03:36:01,VALID,0,VALID,92.8882,VALID,0,VALID,18.8038,VALID,216,VALID,1.19611,
1999-12-25, 03:37:00,VALID,0,VALID,92.9874,VALID,0,VALID,18.7849,VALID,208,VALID,1.37788,
1999-12-25, 03:38:00,VALID,0,VALID,93.0547,VALID,0,VALID,18.7819,VALID,222,VALID,0.888148,
1999-12-25, 03:39:00,VALID,0,VALID,93.229,VALID,0,VALID,18.7325,VALID,238,VALID,0.999023,
1999-12-25, 03:40:00,VALID,0,VALID,93.379,VALID,0,VALID,18.7034,VALID,219,VALID,0.808093,
1999-12-25, 03:41:00,VALID,0,VALID,93.5761,VALID,0,VALID,18.6616,VALID,215,VALID,0.998047,
1999-12-25, 03:42:00,VALID,0,VALID,93.6143,VALID,0,VALID,18.6288,VALID,208,VALID,0.651521,
1999-12-25, 03:43:00,VALID,0,VALID,93.7147,VALID,-0.0169808,VALID,18.6069,VALID,209,VALID,0.658008,
1999-12-25, 03:44:00,VALID,0,VALID,93.7516,VALID,-0.0169808,VALID,18.584,VALID,215,VALID,1.29975,
1999-12-25, 03:45:00,VALID,0,VALID,93.7134,VALID,-0.0509425,VALID,18.585,VALID,219,VALID,1.34175,
1999-12-25, 03:46:00,VALID,0,VALID,93.716,VALID,0,VALID,18.5716,VALID,223,VALID,0.916295,
1999-12-25, 03:47:00,VALID,0,VALID,93.8419,VALID,-0.0169808,VALID,18.5681,VALID,220,VALID,1.15543,
1999-12-25, 03:48:01,VALID,0,VALID,93.8406,VALID,-0.0169808,VALID,18.5716,VALID,231,VALID,1.05749,
1999-12-25, 03:49:00,VALID,0,VALID,93.7529,VALID,-0.0169808,VALID,18.588,VALID,217,VALID,0.832137,
1999-12-25, 03:50:00,VALID,0,VALID,93.6918,VALID,0,VALID,18.584,VALID,202,VALID,1.04181,
1999-12-25, 03:51:00,VALID,0,VALID,93.7414,VALID,0.0169808,VALID,18.5776,VALID,219,VALID,0.862253,
1999-12-25, 03:52:00,VALID,0,VALID,93.866,VALID,0,VALID,18.5582,VALID,225,VALID,1.24794,
1999-12-25, 03:53:00,VALID,0,VALID,93.7351,VALID,0,VALID,18.5815,VALID,223,VALID,0.803285,
1999-12-25, 03:54:00,VALID,0,VALID,93.468,VALID,-0.0169808,VALID,18.6238,VALID,212,VALID,1.38932,
1999-12-25, 03:55:00,VALID,0,VALID,93.1336,VALID,-0.0169808,VALID,18.6561,VALID,227,VALID,1.36393,
1999-12-25, 03:56:00,VALID,0,VALID,93.0573,VALID,-0.0169808,VALID,18.6683,VALID,213,VALID,1.04688,
1999-12-25, 03:57:00,VALID,0,VALID,93.0064,VALID,0,VALID,18.675,VALID,217,VALID,1.49479,
1999-12-25, 03:58:01,VALID,0,VALID,92.8666,VALID,0.0169808,VALID,18.6974,VALID,217,VALID,0.850361,
1999-12-25, 03:59:01,VALID,0,VALID,92.7368,VALID,0,VALID,18.7136,VALID,228,VALID,0.93011,
1999-12-25, 04:00:00,VALID,0,VALID,92.527,VALID,0,VALID,18.7334,VALID,200,VALID,1.0479,
1999-12-25, 04:01:00,VALID,0,VALID,92.4673,VALID,-0.0339617,VALID,18.7332,VALID,180,VALID,0.75884,
1999-12-25, 04:02:00,VALID,0,VALID,92.5817,VALID,0,VALID,18.7332,VALID,207,VALID,1.19591,
1999-12-25, 04:03:00,VALID,0,VALID,92.5194,VALID,0,VALID,18.756,VALID,209,VALID,1.09235,